OAL114 LGAV-LCPH

Flight info

Callsign OAL114
Flight time 1h 10m
Altitude 35000
Route KEA UL995 RDS UM601 EVENO M601 DASNI M32 TOBAL
Aircraft B738/M-VGDW/C

Departure

Time 2026-04-14 09:22
Airport Athens Eleftherios Venizelos International Airport (LGAV)

Arrival

Time 2026-04-14 10:32
Airport Paphos International Airport (LCPH)
Time Latitude Longitude Altitude Speed Heading
2026-04-14 08:36 37.93834 23.95065 300 ft 0 kts 308°
2026-04-14 09:06 37.93823 23.95082 300 ft 3 kts 307°
2026-04-14 09:07 37.93811 23.95103 299 ft 3 kts 307°
2026-04-14 09:07 37.93800 23.95125 301 ft 3 kts 278°
2026-04-14 09:07 37.93801 23.95148 302 ft 3 kts 243°
2026-04-14 09:07 37.93809 23.95162 299 ft 0 kts 219°
2026-04-14 09:10 37.93804 23.95156 299 ft 3 kts 219°
2026-04-14 09:10 37.93776 23.95127 301 ft 8 kts 218°
2026-04-14 09:10 37.93744 23.95104 300 ft 4 kts 191°
2026-04-14 09:10 37.93717 23.95116 301 ft 5 kts 144°
2026-04-14 09:11 37.93689 23.95164 301 ft 9 kts 123°
2026-04-14 09:11 37.93638 23.95230 297 ft 13 kts 154°
2026-04-14 09:11 37.93553 23.95189 298 ft 15 kts 217°
2026-04-14 09:11 37.93469 23.95107 299 ft 16 kts 218°
2026-04-14 09:12 37.93379 23.95023 301 ft 16 kts 216°
2026-04-14 09:12 37.93288 23.94938 301 ft 16 kts 217°
2026-04-14 09:12 37.93202 23.94855 299 ft 15 kts 217°
2026-04-14 09:12 37.93118 23.94776 300 ft 15 kts 217°
2026-04-14 09:13 37.93039 23.94700 299 ft 14 kts 217°
2026-04-14 09:13 37.92962 23.94627 300 ft 14 kts 217°
2026-04-14 09:13 37.92886 23.94556 301 ft 13 kts 216°
2026-04-14 09:13 37.92813 23.94487 303 ft 13 kts 217°
2026-04-14 09:14 37.92742 23.94420 301 ft 13 kts 217°
2026-04-14 09:14 37.92678 23.94359 302 ft 10 kts 217°
2026-04-14 09:14 37.92635 23.94318 305 ft 2 kts 217°
2026-04-14 09:14 37.92634 23.94318 302 ft 0 kts 217°
2026-04-14 09:15 37.92633 23.94316 302 ft 1 kts 217°
2026-04-14 09:16 37.92617 23.94301 303 ft 5 kts 217°
2026-04-14 09:16 37.92586 23.94283 304 ft 5 kts 189°
2026-04-14 09:16 37.92556 23.94297 304 ft 5 kts 143°
2026-04-14 09:16 37.92535 23.94326 306 ft 3 kts 125°
2026-04-14 09:17 37.92532 23.94332 304 ft 0 kts 126°
2026-04-14 09:19 37.92516 23.94360 306 ft 5 kts 126°
2026-04-14 09:19 37.92493 23.94406 307 ft 8 kts 112°
2026-04-14 09:19 37.92506 23.94470 308 ft 8 kts 48°
2026-04-14 09:19 37.92552 23.94515 306 ft 8 kts 36°
2026-04-14 09:20 37.92589 23.94549 305 ft 0 kts 37°
2026-04-14 09:21 37.92618 23.94576 306 ft 14 kts 37°
2026-04-14 09:21 37.92839 23.94789 300 ft 77 kts 37°
2026-04-14 09:21 37.93460 23.95379 287 ft 144 kts 37°
2026-04-14 09:21 37.94354 23.96202 671 ft 165 kts 37°
2026-04-14 09:22 37.95310 23.97070 1421 ft 176 kts 38°
2026-04-14 09:22 37.96323 23.98044 2142 ft 187 kts 39°
2026-04-14 09:22 37.97420 23.99103 2663 ft 211 kts 39°
2026-04-14 09:22 37.98649 24.00302 3027 ft 236 kts 39°
2026-04-14 09:23 37.99984 24.01605 3706 ft 247 kts 39°
2026-04-14 09:23 38.01404 24.02978 4194 ft 267 kts 38°
2026-04-14 09:23 38.02899 24.04423 5012 ft 269 kts 38°
2026-04-14 09:23 38.04391 24.05875 5858 ft 272 kts 37°
2026-04-14 09:24 38.05882 24.07324 6642 ft 275 kts 36°
2026-04-14 09:24 38.07393 24.08849 7387 ft 280 kts 45°
2026-04-14 09:24 38.08466 24.10900 8161 ft 281 kts 70°
2026-04-14 09:24 38.08982 24.13315 8820 ft 289 kts 85°
2026-04-14 09:25 38.08763 24.15872 9382 ft 295 kts 108°
2026-04-14 09:25 38.08079 24.18346 10128 ft 298 kts 121°
2026-04-14 09:25 38.06725 24.20311 10465 ft 310 kts 149°
2026-04-14 09:25 38.04698 24.21399 10658 ft 327 kts 170°
2026-04-14 09:26 38.02404 24.21872 11098 ft 338 kts 174°
2026-04-14 09:26 38.00053 24.22253 11782 ft 342 kts 175°
2026-04-14 09:26 37.97681 24.22622 12548 ft 344 kts 175°
2026-04-14 09:26 37.95298 24.23002 13308 ft 347 kts 175°
2026-04-14 09:27 37.92893 24.23399 14033 ft 350 kts 175°
2026-04-14 09:27 37.90463 24.23811 14676 ft 354 kts 174°
2026-04-14 09:27 37.88035 24.24231 15285 ft 358 kts 175°
2026-04-14 09:27 37.85552 24.24664 15895 ft 363 kts 175°
2026-04-14 09:28 37.83034 24.25105 16489 ft 367 kts 175°
2026-04-14 09:28 37.80487 24.25553 17090 ft 371 kts 175°
2026-04-14 09:28 37.77911 24.26006 17674 ft 376 kts 175°
2026-04-14 09:28 37.75303 24.26464 18253 ft 381 kts 175°
2026-04-14 09:29 37.72662 24.26927 18787 ft 385 kts 175°
2026-04-14 09:29 37.70002 24.27395 19342 ft 387 kts 176°
2026-04-14 09:29 37.67319 24.27866 19923 ft 389 kts 176°
2026-04-14 09:29 37.64628 24.28338 20463 ft 392 kts 176°
2026-04-14 09:30 37.61952 24.28805 20987 ft 395 kts 176°
2026-04-14 09:30 37.59227 24.29480 21508 ft 404 kts 165°
2026-04-14 09:30 37.56732 24.31222 22002 ft 420 kts 144°
2026-04-14 09:30 37.54758 24.34008 22494 ft 433 kts 125°
2026-04-14 09:31 37.53530 24.37523 22967 ft 443 kts 112°
2026-04-14 09:31 37.52577 24.41186 23377 ft 448 kts 110°
2026-04-14 09:31 37.51649 24.44957 23758 ft 453 kts 110°
2026-04-14 09:31 37.50711 24.48783 24132 ft 457 kts 110°
2026-04-14 09:32 37.49756 24.52615 24559 ft 458 kts 111°
2026-04-14 09:32 37.48782 24.56441 24979 ft 460 kts 111°
2026-04-14 09:32 37.46783 24.64124 25732 ft 464 kts 112°
2026-04-14 09:33 37.45763 24.68003 26094 ft 467 kts 112°
2026-04-14 09:33 37.44735 24.71903 26459 ft 469 kts 112°
2026-04-14 09:33 37.43717 24.75765 26817 ft 471 kts 112°
2026-04-14 09:33 37.42680 24.79695 27170 ft 474 kts 112°
2026-04-14 09:34 37.41640 24.83632 27517 ft 476 kts 112°
2026-04-14 09:34 37.40589 24.87607 27864 ft 478 kts 112°
2026-04-14 09:34 37.39536 24.91583 28222 ft 481 kts 112°
2026-04-14 09:34 37.38477 24.95579 28534 ft 483 kts 112°
2026-04-14 09:35 37.37409 24.99601 28852 ft 485 kts 112°
2026-04-14 09:35 37.36348 25.03590 29154 ft 487 kts 112°
2026-04-14 09:35 37.35269 25.07637 29454 ft 490 kts 112°
2026-04-14 09:35 37.34183 25.11709 29758 ft 492 kts 112°
2026-04-14 09:36 37.33093 25.15794 30053 ft 494 kts 112°
2026-04-14 09:36 37.31998 25.19893 30297 ft 496 kts 112°
2026-04-14 09:36 37.30896 25.24012 30551 ft 497 kts 112°
2026-04-14 09:36 37.29795 25.28124 30859 ft 497 kts 112°
2026-04-14 09:37 37.28690 25.32245 31179 ft 496 kts 112°
2026-04-14 09:37 37.27580 25.36356 31458 ft 497 kts 114°
2026-04-14 09:37 37.26353 25.40407 31709 ft 496 kts 116°
2026-04-14 09:37 37.25024 25.44404 32004 ft 496 kts 117°
2026-04-14 09:38 37.23686 25.48397 32299 ft 496 kts 117°
2026-04-14 09:38 37.22381 25.52354 32564 ft 497 kts 116°
2026-04-14 09:38 37.21051 25.56374 32813 ft 498 kts 117°
2026-04-14 09:38 37.19713 25.60396 33076 ft 498 kts 117°
2026-04-14 09:39 37.18371 25.64417 33348 ft 499 kts 117°
2026-04-14 09:39 37.17047 25.68376 33605 ft 499 kts 117°
2026-04-14 09:39 37.15703 25.72393 33835 ft 500 kts 117°
2026-04-14 09:39 37.14357 25.76416 34096 ft 500 kts 116°
2026-04-14 09:40 37.13007 25.80445 34332 ft 501 kts 116°
2026-04-14 09:40 37.11656 25.84473 34545 ft 501 kts 116°
2026-04-14 09:40 37.10304 25.88500 34776 ft 501 kts 116°
2026-04-14 09:40 37.08953 25.92521 34990 ft 501 kts 116°
2026-04-14 09:41 37.07598 25.96545 35172 ft 502 kts 116°
2026-04-14 09:41 37.04864 26.04644 35191 ft 506 kts 116°
2026-04-14 09:42 37.02128 26.12736 35169 ft 502 kts 116°
2026-04-14 09:42 36.99430 26.20693 35189 ft 499 kts 116°
2026-04-14 09:43 36.96720 26.28669 35187 ft 498 kts 116°
2026-04-14 09:43 36.94020 26.36637 35184 ft 497 kts 116°
2026-04-14 09:44 36.91316 26.44603 35192 ft 498 kts 116°
2026-04-14 09:44 36.88603 26.52567 35191 ft 498 kts 116°
2026-04-14 09:45 36.85874 26.60531 35191 ft 499 kts 116°
2026-04-14 09:45 36.83133 26.68510 35189 ft 500 kts 116°
2026-04-14 09:46 36.80849 26.75154 35190 ft 501 kts 116°
2026-04-14 09:46 36.78100 26.83144 35192 ft 502 kts 116°
2026-04-14 09:47 36.75341 26.91146 35191 ft 502 kts 116°
2026-04-14 09:47 36.72589 26.99106 35181 ft 502 kts 116°
2026-04-14 09:48 36.69815 27.07111 35183 ft 502 kts 116°
2026-04-14 09:48 36.67039 27.15095 35188 ft 501 kts 116°
2026-04-14 09:49 36.64259 27.23046 35190 ft 500 kts 116°
2026-04-14 09:49 36.61475 27.30984 35193 ft 499 kts 116°
2026-04-14 09:50 36.58707 27.38860 35195 ft 498 kts 116°
2026-04-14 09:50 36.55930 27.46747 35198 ft 497 kts 116°
2026-04-14 09:51 36.53147 27.54630 35192 ft 496 kts 116°
2026-04-14 09:51 36.50478 27.62172 35195 ft 496 kts 116°
2026-04-14 09:52 36.47692 27.70025 35199 ft 496 kts 116°
2026-04-14 09:52 36.44896 27.77872 35197 ft 497 kts 117°
2026-04-14 09:53 36.42085 27.85717 35204 ft 497 kts 117°
2026-04-14 09:53 36.39265 27.93571 35210 ft 498 kts 116°
2026-04-14 09:54 36.36458 28.01379 35214 ft 499 kts 117°
2026-04-14 09:54 36.33662 28.09273 35214 ft 502 kts 112°
2026-04-14 09:55 36.31486 28.17524 35219 ft 503 kts 108°
2026-04-14 09:55 36.29470 28.25851 35213 ft 504 kts 109°
2026-04-14 09:56 36.27381 28.34153 35202 ft 504 kts 109°
2026-04-14 09:56 36.25249 28.42430 35198 ft 504 kts 109°
2026-04-14 09:57 36.23128 28.50650 35201 ft 504 kts 109°
2026-04-14 09:57 36.20985 28.58907 35202 ft 503 kts 110°
2026-04-14 09:58 36.18834 28.67159 35211 ft 502 kts 110°
2026-04-14 09:58 36.16685 28.75387 35214 ft 502 kts 110°
2026-04-14 09:59 36.14530 28.83613 35217 ft 502 kts 110°
2026-04-14 09:59 36.12374 28.91817 35225 ft 501 kts 110°
2026-04-14 10:00 36.10225 28.99967 35227 ft 501 kts 110°
2026-04-14 10:00 36.08055 29.08175 35236 ft 501 kts 110°
2026-04-14 10:01 36.05880 29.16373 35237 ft 502 kts 110°
2026-04-14 10:01 36.03710 29.24530 35236 ft 502 kts 110°
2026-04-14 10:02 36.01519 29.32740 35241 ft 503 kts 109°
2026-04-14 10:02 35.99318 29.40963 35244 ft 503 kts 109°
2026-04-14 10:03 35.97113 29.49178 35245 ft 504 kts 109°
2026-04-14 10:03 35.94914 29.57340 35244 ft 504 kts 110°
2026-04-14 10:04 35.92688 29.65564 35251 ft 505 kts 110°
2026-04-14 10:04 35.90455 29.73789 35256 ft 505 kts 110°
2026-04-14 10:05 35.88219 29.82005 35249 ft 505 kts 110°
2026-04-14 10:05 35.85993 29.90161 35246 ft 504 kts 110°
2026-04-14 10:06 35.83756 29.98339 35200 ft 496 kts 110°
2026-04-14 10:06 35.82675 30.02338 34913 ft 488 kts 109°
2026-04-14 10:06 35.81656 30.06315 34485 ft 486 kts 108°
2026-04-14 10:06 35.80668 30.10293 33988 ft 484 kts 108°
2026-04-14 10:07 35.79705 30.14198 33529 ft 481 kts 108°
2026-04-14 10:07 35.78733 30.18130 33119 ft 477 kts 108°
2026-04-14 10:07 35.77766 30.22016 32716 ft 473 kts 108°
2026-04-14 10:07 35.76798 30.25873 32314 ft 469 kts 108°
2026-04-14 10:08 35.75834 30.29696 31896 ft 466 kts 108°
2026-04-14 10:08 35.74872 30.33498 31490 ft 463 kts 108°
2026-04-14 10:08 35.73913 30.37278 31090 ft 460 kts 108°
2026-04-14 10:08 35.72971 30.40988 30718 ft 457 kts 108°
2026-04-14 10:09 35.72025 30.44711 30348 ft 454 kts 108°
2026-04-14 10:09 35.71084 30.48405 29906 ft 451 kts 108°
2026-04-14 10:09 35.70148 30.52079 29455 ft 447 kts 109°
2026-04-14 10:09 35.69221 30.55712 28951 ft 442 kts 109°
2026-04-14 10:10 35.68300 30.59317 28359 ft 439 kts 109°
2026-04-14 10:10 35.67394 30.62856 27787 ft 437 kts 109°
2026-04-14 10:10 35.66484 30.66409 27234 ft 434 kts 109°
2026-04-14 10:10 35.65576 30.69947 26720 ft 431 kts 109°
2026-04-14 10:11 35.64675 30.73454 26225 ft 427 kts 109°
2026-04-14 10:11 35.63782 30.76928 25743 ft 424 kts 109°
2026-04-14 10:11 35.62895 30.80369 25244 ft 421 kts 109°
2026-04-14 10:11 35.61980 30.83783 24733 ft 418 kts 113°
2026-04-14 10:12 35.60743 30.86987 23901 ft 422 kts 125°
2026-04-14 10:12 35.59124 30.90018 23123 ft 423 kts 127°
2026-04-14 10:12 35.57494 30.93004 22572 ft 419 kts 127°
2026-04-14 10:12 35.55880 30.95962 22096 ft 412 kts 127°
2026-04-14 10:13 35.54301 30.98871 21667 ft 406 kts 126°
2026-04-14 10:13 35.52750 31.01739 21257 ft 400 kts 126°
2026-04-14 10:13 35.51217 31.04582 20868 ft 397 kts 126°
2026-04-14 10:13 35.49719 31.07364 20476 ft 395 kts 126°
2026-04-14 10:14 35.48209 31.10171 20084 ft 393 kts 125°
2026-04-14 10:14 35.46704 31.12968 19693 ft 390 kts 125°
2026-04-14 10:14 35.45206 31.15749 19293 ft 388 kts 125°
2026-04-14 10:14 35.43719 31.18511 18904 ft 386 kts 125°
2026-04-14 10:15 35.42238 31.21258 18506 ft 385 kts 124°
2026-04-14 10:15 35.40782 31.23957 18066 ft 383 kts 124°
2026-04-14 10:15 35.39313 31.26677 17640 ft 380 kts 124°
2026-04-14 10:15 35.37856 31.29374 17230 ft 378 kts 124°
2026-04-14 10:16 35.36410 31.32047 16830 ft 375 kts 124°
2026-04-14 10:16 35.34971 31.34707 16444 ft 373 kts 124°
2026-04-14 10:16 35.33543 31.37344 16052 ft 371 kts 124°
2026-04-14 10:16 35.32120 31.39968 15672 ft 369 kts 124°
2026-04-14 10:17 35.30699 31.42588 15279 ft 367 kts 124°
2026-04-14 10:17 35.29293 31.45178 14902 ft 365 kts 124°
2026-04-14 10:17 35.27900 31.47741 14520 ft 364 kts 124°
2026-04-14 10:17 35.26500 31.50317 14114 ft 363 kts 124°
2026-04-14 10:18 35.23714 31.55436 13282 ft 360 kts 123°
2026-04-14 10:18 35.22330 31.57977 12877 ft 358 kts 123°
2026-04-14 10:18 35.20960 31.60490 12488 ft 352 kts 123°
2026-04-14 10:19 35.19613 31.62960 12094 ft 346 kts 123°
2026-04-14 10:19 35.18288 31.65386 11722 ft 340 kts 123°
2026-04-14 10:19 35.16984 31.67774 11354 ft 335 kts 123°
2026-04-14 10:19 35.15700 31.70122 10987 ft 330 kts 123°
2026-04-14 10:20 35.14452 31.72402 10756 ft 321 kts 123°
2026-04-14 10:20 35.13236 31.74624 10606 ft 309 kts 124°
2026-04-14 10:20 35.12058 31.76775 10461 ft 298 kts 123°
2026-04-14 10:20 35.10919 31.78853 10325 ft 289 kts 124°
2026-04-14 10:21 35.09807 31.80881 10173 ft 287 kts 124°
2026-04-14 10:21 35.08682 31.82931 9858 ft 294 kts 123°
2026-04-14 10:21 35.07546 31.85001 9403 ft 299 kts 123°
2026-04-14 10:21 35.06387 31.87111 9066 ft 299 kts 123°
2026-04-14 10:22 35.05238 31.89200 8746 ft 294 kts 123°
2026-04-14 10:22 35.04108 31.91255 8443 ft 289 kts 123°
2026-04-14 10:22 35.02989 31.93288 8146 ft 284 kts 123°
2026-04-14 10:22 35.01906 31.95255 7864 ft 282 kts 123°
2026-04-14 10:23 35.00812 31.97242 7583 ft 281 kts 123°
2026-04-14 10:23 34.99724 31.99216 7299 ft 280 kts 123°
2026-04-14 10:23 34.98638 32.01186 7016 ft 279 kts 123°
2026-04-14 10:23 34.97564 32.03132 6723 ft 274 kts 123°
2026-04-14 10:24 34.96510 32.05042 6422 ft 269 kts 123°
2026-04-14 10:24 34.95468 32.06929 6141 ft 268 kts 123°
2026-04-14 10:24 34.94429 32.08808 5863 ft 267 kts 123°
2026-04-14 10:24 34.93393 32.10682 5587 ft 266 kts 123°
2026-04-14 10:25 34.92331 32.12523 5309 ft 265 kts 130°
2026-04-14 10:25 34.91035 32.14085 5049 ft 264 kts 138°
2026-04-14 10:25 34.89646 32.15539 4768 ft 263 kts 139°
2026-04-14 10:25 34.88249 32.16982 4491 ft 262 kts 139°
2026-04-14 10:26 34.86872 32.18420 4216 ft 260 kts 138°
2026-04-14 10:26 34.85511 32.19857 3950 ft 257 kts 138°
2026-04-14 10:26 34.84191 32.21262 3829 ft 247 kts 137°
2026-04-14 10:26 34.82934 32.22609 3706 ft 240 kts 137°
2026-04-14 10:27 34.81719 32.23912 3651 ft 225 kts 137°
2026-04-14 10:27 34.80577 32.25138 3551 ft 212 kts 137°
2026-04-14 10:27 34.79499 32.26297 3417 ft 201 kts 137°
2026-04-14 10:27 34.78465 32.27412 3194 ft 195 kts 135°
2026-04-14 10:28 34.77778 32.28769 2984 ft 186 kts 108°
2026-04-14 10:28 34.77365 32.30229 2791 ft 179 kts 110°
2026-04-14 10:28 34.76942 32.31620 2605 ft 178 kts 111°
2026-04-14 10:28 34.76510 32.33036 2395 ft 177 kts 111°
2026-04-14 10:29 34.76094 32.34401 2148 ft 168 kts 111°
2026-04-14 10:29 34.75698 32.35708 1971 ft 159 kts 111°
2026-04-14 10:29 34.75344 32.36895 1897 ft 146 kts 111°
2026-04-14 10:29 34.74986 32.38048 1670 ft 145 kts 112°
2026-04-14 10:30 34.74621 32.39205 1406 ft 148 kts 113°
2026-04-14 10:30 34.74261 32.40386 1212 ft 149 kts 112°
2026-04-14 10:30 34.73922 32.41564 983 ft 150 kts 111°
2026-04-14 10:30 34.73576 32.42753 770 ft 147 kts 113°
2026-04-14 10:31 34.73198 32.43898 596 ft 145 kts 114°
2026-04-14 10:31 34.72850 32.45053 386 ft 145 kts 112°
2026-04-14 10:31 34.72524 32.46203 191 ft 142 kts 113°
2026-04-14 10:31 34.72178 32.47313 65 ft 138 kts 115°
2026-04-14 10:32 34.71868 32.48303 45 ft 103 kts 110°
2026-04-14 10:32 34.71700 32.48865 45 ft 39 kts 110°
2026-04-14 10:32 34.71641 32.49004 47 ft 13 kts 157°
2026-04-14 10:32 34.71559 32.48985 45 ft 12 kts 200°
2026-04-14 10:33 34.71499 32.48917 45 ft 12 kts 247°
2026-04-14 10:33 34.71466 32.48826 43 ft 12 kts 245°
2026-04-14 10:33 34.71435 32.48793 45 ft 5 kts 170°
2026-04-14 10:33 34.71407 32.48822 45 ft 6 kts 143°
2026-04-14 10:34 34.71377 32.48841 45 ft 0 kts 155°